Vertical_Velocity
1 2 3 3 3 2 1 1 1 2 3 4 5 6 6 6 4 3 2 2 1 0 -0 -0 -1 -1 0 1 1 1 -0 -0 -0 -1 -2 -2 -3 -3 -3 -1 1 3 6 11 16 18 18 15 14 14 13 7 5 5 5 4 1 -1 -2 -3 -3 -3 -2 -1 -1 -1 0 1 3
2 3 4 5 4 4 3 1 1 1 2 4 5 6 6 7 5 4 2 2 1 1 0 -0 -1 -0 0 1 1 1 -0 -0 -1 -1 -1 -1 -3 -4 -2 5 8 10 12 16 19 20 20 17 19 18 13 3 2 2 2 1 1 -0 -1 -2 -3 -2 -2 -2 -1 -1 0 1 2
3 4 5 6 6 6 5 3 2 3 3 3 4 4 5 6 6 5 3 1 1 2 2 1 0 0 1 2 2 1 0 -1 -1 -1 -1 -1 -2 -2 1 9 12 13 14 16 20 21 20 19 21 19 12 0 -2 -2 -1 -1 -0 0 -0 -2 -3 -3 -2 -2 -1 -0 1 1 1
3 4 5 6 6 6 6 5 4 4 4 4 3 3 3 4 5 4 3 2 3 3 3 2 1 1 1 2 2 1 0 -0 -0 -0 -1 -2 -3 -1 3 11 14 14 13 16 22 23 21 19 18 12 6 0 -1 -0 0 -1 -1 -0 0 -1 -2 -2 -2 -2 -1 0 1 1 1
2 3 4 4 5 5 5 5 5 4 3 3 2 1 1 3 3 4 4 5 5 4 4 3 2 2 2 2 2 1 1 0 0 -0 -1 -2 -3 1 6 12 14 14 15 17 19 20 19 17 12 6 1 0 7 16 18 8 -0 -2 -1 -1 -1 -2 -2 -1 -0 0 1 1 0
2 2 2 2 3 3 3 4 3 3 2 2 1 1 1 2 2 4 5 5 5 4 5 5 4 3 3 2 2 1 1 0 0 0 -1 -2 -2 1 6 6 9 11 13 15 15 15 14 16 10 4 -0 -0 6 15 19 10 0 -2 -1 -1 -1 -1 -0 -0 0 1 1 1 0
2 2 2 2 2 2 2 2 1 1 1 2 2 2 2 2 2 3 3 4 5 6 6 6 6 5 4 3 2 1 1 0 0 -0 -1 -2 -1 0 2 2 3 5 7 10 9 9 10 11 9 5 1 -0 1 3 5 3 -0 -1 -1 -1 -1 -0 1 0 0 1 1 0 -0
2 2 3 3 3 3 2 1 0 0 1 2 3 2 2 2 2 2 3 4 5 6 6 8 8 7 6 4 2 1 1 1 -0 -1 -2 -2 0 2 3 3 3 4 4 4 3 6 8 9 9 8 4 -0 -0 0 1 2 2 0 -1 -1 -1 0 1 1 1 1 1 1 1
1 1 2 3 4 4 2 0 0 1 1 2 2 2 1 2 2 2 3 4 4 5 7 10 9 8 6 4 3 2 1 0 -1 -2 -2 0 5 6 5 4 4 3 2 2 2 4 6 7 7 6 3 -1 -1 -1 1 6 5 1 -1 -0 0 0 0 1 1 1 2 2 1
-1 -1 1 3 4 4 3 1 1 1 2 2 1 1 1 1 2 2 2 1 3 6 9 10 10 9 7 5 3 1 0 -1 -2 -2 0 5 9 9 7 5 4 3 2 2 3 3 4 4 4 2 0 -0 -1 -1 1 6 5 2 -1 -0 1 1 1 1 2 2 2 1 1
-2 -2 -1 1 3 4 4 2 1 1 2 1 1 1 1 1 1 1 1 1 4 6 8 8 9 9 7 4 2 1 -0 -1 -2 0 4 8 7 6 6 6 4 3 2 1 1 1 2 3 2 1 -0 -0 -0 -0 1 6 4 1 -0 0 1 2 2 1 2 2 1 1 0
0 -1 -1 1 3 4 5 3 1 1 1 0 1 1 1 1 1 0 1 3 4 5 5 7 8 7 6 4 2 0 -1 -2 -2 1 5 6 4 3 3 4 4 4 3 2 -0 -1 0 2 1 1 0 0 0 0 1 3 1 1 1 1 2 2 2 2 1 1 1 0 0
2 2 1 1 2 4 4 2 1 0 0 0 1 1 1 0 0 1 2 3 3 3 4 5 6 5 4 2 1 -0 -1 -2 -2 1 3 4 2 2 2 2 3 3 4 5 1 -1 -0 1 0 -0 0 1 0 0 0 1 0 1 1 1 2 2 2 2 1 0 -0 -0 -0
4 4 3 2 2 3 3 2 1 0 0 0 1 1 1 1 1 1 2 2 2 3 3 3 3 3 2 1 -0 -1 -1 -2 -1 0 2 3 3 3 2 1 2 2 3 3 1 -0 0 1 0 -0 0 1 1 1 1 -0 -0 0 2 2 2 2 1 1 0 -0 -0 -1 -1
3 4 4 4 2 2 2 3 1 1 0 0 0 1 2 1 1 2 2 2 2 1 1 1 1 -0 -1 -1 -1 -1 -1 -1 -0 1 2 3 4 3 3 2 3 3 2 1 1 0 1 1 0 -0 0 1 1 1 0 -2 -1 0 2 3 2 2 1 0 -0 -0 -0 -1 -1
2 3 4 4 2 2 2 2 2 1 1 0 1 1 2 2 2 2 2 2 1 0 0 0 -1 -2 -2 -2 -1 -1 -0 1 2 4 6 6 5 4 3 3 3 3 2 2 1 0 -0 -1 -1 -1 -0 1 4 3 -0 -5 -1 2 4 3 3 2 1 0 -0 -0 -0 -0 -0
1 2 3 4 3 1 0 1 2 2 1 1 1 2 2 2 2 2 2 1 0 -0 -1 -2 -3 -3 -2 -1 1 2 2 2 6 9 11 10 8 5 3 3 3 2 1 1 0 -0 -1 -2 -2 -2 2 8 13 10 3 -2 0 3 5 4 3 2 1 1 0 0 0 0 0
-1 -0 2 4 3 1 -0 0 1 2 2 1 2 2 2 3 3 2 1 0 -0 -1 -1 -3 -4 -4 -2 -0 3 6 6 5 8 10 11 9 8 6 3 3 3 2 1 0 -0 -1 -2 -2 -3 -1 5 17 20 15 8 4 4 4 4 3 3 2 1 1 1 1 1 1 0
-2 -1 1 5 4 1 -1 -0 1 1 2 2 2 2 3 3 2 2 1 0 -0 -1 -2 -3 -4 -4 -3 -1 4 7 9 8 7 7 7 6 6 5 3 3 2 1 0 0 -1 -1 -2 -3 -4 -1 4 14 16 14 10 7 5 3 2 2 2 2 1 1 1 1 1 1 0
-1 0 2 6 4 2 -0 -0 0 1 1 2 3 3 3 2 2 2 1 -0 -1 -2 -2 -3 -3 -2 -1 -0 4 7 8 8 8 6 5 4 5 4 3 2 2 1 0 -1 -1 -1 -2 -3 -3 -2 1 7 12 12 10 6 3 1 0 1 2 2 2 1 1 1 1 0 0
1 2 4 6 4 2 0 -0 -0 0 1 2 3 3 2 1 2 2 1 -1 -1 -1 -1 -1 -0 1 1 1 3 3 4 5 6 6 4 3 4 3 2 2 1 1 -0 -1 -1 -1 -2 -2 -2 -1 1 4 10 11 8 3 1 0 1 2 2 2 1 1 1 0 0 -0 0
2 4 4 5 3 1 0 -0 0 0 1 2 2 2 2 1 2 1 1 -0 -0 0 0 1 2 2 2 2 2 1 1 2 3 3 3 2 2 2 1 1 1 0 -0 -0 -1 -2 -2 -1 -0 1 3 5 9 8 6 2 2 2 3 3 2 1 0 0 0 0 -0 -1 2
3 4 4 3 2 1 0 -0 0 1 1 1 1 2 1 1 1 1 1 1 1 2 2 3 4 4 3 2 2 2 2 2 1 1 1 1 1 0 0 -0 -0 -0 -0 -1 -2 -2 -1 -0 1 2 4 7 8 6 4 3 4 3 3 1 1 0 -0 -0 -0 -0 -0 2 8
6 5 3 2 1 0 -0 0 0 0 1 1 1 1 1 1 1 1 2 2 3 3 4 5 5 4 4 3 3 2 2 2 1 1 0 0 1 0 -0 -0 -0 -0 -1 -2 -2 -1 -0 1 2 4 5 7 6 4 3 3 3 2 1 0 0 0 -0 -0 -0 0 3 8 10
7 4 3 2 1 0 0 0 0 0 0 0 1 2 2 2 2 2 2 3 4 5 5 6 5 4 3 3 2 2 2 2 1 1 1 1 1 1 0 -0 -0 -1 -2 -2 -1 -0 1 2 3 4 4 3 2 1 1 1 1 1 1 1 1 0 -0 -1 -1 1 3 5 4
5 4 3 1 0 0 0 0 -0 0 1 1 3 3 3 3 3 3 3 4 5 5 5 5 4 3 3 2 2 2 2 2 1 1 1 1 1 0 0 -0 -1 -1 -1 -1 1 1 2 2 2 2 1 -0 -0 -0 -0 -0 0 1 1 1 1 1 0 -0 -0 0 1 1 1
3 2 1 0 0 -0 -0 -0 0 1 2 3 4 4 4 4 4 4 4 4 4 4 4 3 3 2 2 2 2 2 2 2 1 1 0 0 1 0 -0 -1 -1 0 1 3 3 2 1 0 0 -0 -0 -0 -0 0 1 1 1 1 1 1 0 1 1 1 1 1 1 2 5
1 0 -0 -1 -1 -1 -1 0 2 3 3 4 4 4 4 4 4 3 3 2 3 3 2 2 2 2 2 3 2 2 1 1 0 0 0 0 1 0 -0 -1 1 2 3 3 2 1 0 0 -0 -0 -0 0 1 1 1 1 1 0 0 0 0 0 1 1 1 4 7 9 9
1 1 0 -0 -1 -0 0 2 3 3 3 4 4 4 4 4 2 2 1 1 2 2 2 2 2 2 3 3 2 1 0 -1 -1 -0 0 0 0 1 1 1 2 2 2 1 1 1 0 0 -0 -0 0 1 2 1 1 0 -0 -1 -1 -0 0 1 1 -1 -1 -1 -1 -0 0
1 1 1 0 0 1 2 2 2 3 3 3 4 4 3 2 1 1 1 1 1 1 1 2 2 3 2 1 -0 -1 -1 -1 -1 -0 0 1 1 1 2 2 1 1 2 2 1 1 0 0 0 1 1 1 1 0 -0 -1 -1 -1 -0 1 1 2 1 0 0 -0 -1 -1 -1
1 1 1 1 1 2 2 2 2 2 3 3 3 3 2 1 0 0 0 0 1 1 1 2 2 1 0 -1 -2 -2 -2 -1 -1 0 1 1 1 1 0 1 1 1 1 1 1 0 0 0 1 0 0 -0 -1 -1 -1 -0 2 4 4 4 2 2 1 1 0 -1 -1 -2 -2
1 1 1 1 1 1 1 1 2 2 2 3 2 2 1 1 0 0 0 0 1 1 1 1 1 -0 -1 -2 -2 -2 -1 -1 -0 0 1 2 2 1 0 1 1 0 0 0 1 1 1 0 -0 -0 -1 -0 0 2 4 9 12 12 10 5 2 1 0 -0 -1 -2 -2 -2 -2
0 0 0 0 0 0 1 1 1 1 2 2 2 1 1 1 1 1 1 1 1 1 0 -0 -0 -1 -2 -3 -2 -2 -1 -1 0 1 2 3 2 1 1 0 -0 -0 0 1 1 1 -0 -1 -1 -0 1 3 6 10 15 20 18 14 9 3 0 -1 -2 -2 -2 -2 -1 0 2
-1 -0 -0 -0 -0 -0 0 0 1 1 2 2 2 2 2 2 2 1 1 1 1 0 0 -0 -1 -1 -2 -2 -1 -1 -0 -0 0 1 1 1 1 1 0 0 -0 0 1 1 1 -0 -1 -0 1 3 6 9 14 17 18 17 13 8 3 -1 -3 -3 -3 -2 0 2 5 6 7
-1 -1 -0 -0 -0 0 0 0 1 1 2 2 3 3 3 3 3 2 1 1 1 1 0 -1 -1 -1 -1 -1 -0 0 0 -0 -0 0 0 0 1 1 1 0 0 1 1 0 -0 -0 1 3 5 9 13 17 18 16 13 9 5 1 -1 -3 -3 -1 1 5 7 8 9 8 6
-1 -1 -0 0 0 0 1 1 1 1 2 3 4 4 4 4 4 3 2 1 1 0 0 -0 -0 -0 -0 0 -0 -0 -0 -0 -0 -0 -0 -0 0 1 1 0 0 -0 -0 -0 1 3 6 10 14 16 18 16 13 9 5 2 -0 -2 -3 -1 2 5 8 9 8 7 5 4 3
-2 -1 -1 0 0 1 1 1 1 1 1 1 2 3 3 2 2 1 0 -0 -0 -0 -0 0 0 0 -0 -0 -0 -1 -1 -1 -1 -1 -0 -0 0 1 1 1 -0 -0 0 2 6 11 15 18 17 15 12 8 4 1 -0 -2 -2 -1 1 4 6 7 7 6 4 3 2 1 0
-3 -2 -2 -1 -1 -0 0 0 -0 -1 -2 -2 -2 -1 -0 -1 -1 -1 -1 -1 -0 0 1 1 0 -0 -1 -1 -1 -1 -1 -1 -1 -1 -0 2 4 4 4 1 1 2 5 10 15 17 16 14 10 6 3 1 -0 -1 -1 -0 1 4 6 7 6 4 3 2 2 1 0 -0 -0
-3 -3 -3 -3 -3 -3 -2 -2 -2 -3 -3 -4 -4 -3 -3 -2 -2 -1 -1 -0 0 1 1 0 -1 -1 -2 -2 -2 -3 -2 -2 -1 1 3 6 6 5 4 3 5 9 13 16 15 12 8 4 2 1 0 0 0 1 3 5 6 6 5 4 2 1 0 0 1 0 -0 -1 -1
-2 -3 -3 -4 -4 -4 -4 -4 -4 -3 -3 -2 -1 -1 -1 -0 -0 -0 -0 0 0 -0 -1 -1 -2 -3 -3 -3 -3 -2 -0 3 4 5 6 6 4 4 6 9 12 13 13 11 7 4 1 -1 -1 -1 1 2 4 5 6 7 6 4 2 0 0 -0 -1 -1 0 1 0 -1 -1
1 0 -0 -1 -1 -2 -2 -2 -1 -0 0 1 2 2 2 2 1 0 0 -0 -1 -1 -2 -3 -3 -3 -2 -0 4 8 11 12 10 8 6 6 8 10 11 12 11 8 5 1 -0 -1 -1 -1 1 2 4 6 6 6 5 4 2 1 -1 -2 -1 -0 -0 -1 -0 0 1 1 -0
Height
5698 5699 5700 5700 5701 5701 5702 5703 5703 5704 5705 5706 5707 5708 5709 5710 5711 5711 5712 5713 5713 5713 5714 5714 5715 5716 5717 5718 5719 5720 5720 5721 5722 5723 5723 5724 5724 5725 5726 5727 5726 5726 5727 5728 5728 5728 5727 5725 5725 5725 5725 5726 5726 5727 5727 5727 5727 5727 5727 5727 5727 5727 5727 5727 5726 5726 5725 5725 5724
5693 5694 5695 5695 5696 5696 5697 5697 5698 5699 5700 5701 5702 5703 5704 5705 5706 5707 5708 5708 5709 5709 5710 5710 5711 5712 5713 5714 5715 5716 5717 5718 5719 5719 5720 5721 5722 5722 5723 5724 5724 5724 5725 5725 5725 5725 5724 5723 5723 5723 5722 5723 5723 5724 5724 5724 5724 5724 5724 5724 5724 5724 5724 5723 5723 5723 5723 5722 5721
5688 5688 5689 5690 5690 5691 5691 5692 5693 5694 5695 5696 5697 5698 5699 5700 5702 5703 5703 5704 5704 5705 5706 5707 5708 5709 5710 5711 5712 5713 5713 5714 5715 5716 5717 5718 5718 5719 5720 5721 5722 5722 5722 5723 5723 5722 5722 5721 5720 5720 5719 5720 5721 5721 5721 5721 5721 5722 5721 5721 5721 5721 5721 5720 5720 5720 5719 5719 5718
5682 5683 5683 5684 5685 5685 5686 5686 5687 5688 5689 5690 5691 5692 5693 5695 5696 5698 5698 5699 5700 5701 5702 5703 5704 5705 5707 5708 5708 5709 5710 5711 5712 5713 5714 5714 5715 5716 5717 5718 5718 5718 5719 5720 5720 5719 5719 5718 5717 5717 5717 5718 5718 5719 5718 5718 5718 5718 5718 5718 5718 5718 5718 5717 5717 5717 5716 5716 5715
5675 5676 5677 5678 5678 5679 5679 5680 5681 5682 5683 5684 5685 5687 5688 5689 5691 5692 5694 5695 5697 5698 5698 5700 5701 5702 5703 5704 5705 5706 5707 5708 5708 5709 5710 5711 5712 5713 5713 5713 5714 5714 5715 5716 5716 5716 5715 5715 5714 5714 5714 5716 5718 5717 5716 5715 5715 5715 5715 5715 5715 5715 5714 5714 5714 5713 5713 5713 5712
5669 5670 5671 5671 5672 5672 5673 5673 5675 5676 5677 5678 5680 5681 5683 5684 5686 5687 5689 5691 5692 5693 5695 5696 5697 5698 5699 5700 5701 5702 5703 5704 5705 5706 5707 5708 5709 5709 5709 5709 5710 5710 5711 5711 5711 5712 5712 5712 5711 5711 5712 5713 5714 5714 5713 5713 5712 5712 5712 5712 5712 5712 5711 5711 5711 5710 5710 5709 5709
5663 5663 5664 5665 5665 5666 5667 5667 5668 5670 5671 5673 5674 5676 5678 5679 5681 5683 5684 5686 5688 5689 5691 5692 5693 5694 5695 5696 5697 5698 5699 5701 5702 5703 5703 5704 5705 5705 5705 5705 5705 5706 5706 5707 5707 5708 5708 5708 5709 5709 5709 5709 5710 5710 5710 5710 5709 5709 5709 5709 5708 5708 5708 5708 5707 5707 5707 5706 5705
5656 5657 5658 5659 5659 5660 5661 5661 5663 5664 5666 5668 5669 5671 5673 5674 5676 5678 5679 5681 5683 5685 5687 5688 5690 5691 5692 5693 5693 5695 5696 5697 5698 5699 5700 5701 5701 5701 5701 5702 5702 5702 5702 5703 5704 5704 5704 5705 5707 5707 5707 5706 5707 5707 5707 5707 5706 5706 5706 5706 5705 5705 5705 5704 5704 5703 5703 5703 5702
5649 5650 5652 5653 5654 5654 5655 5656 5657 5659 5661 5663 5664 5666 5668 5669 5671 5673 5675 5677 5679 5681 5683 5685 5686 5687 5688 5688 5690 5691 5692 5693 5694 5695 5697 5698 5698 5698 5698 5698 5698 5699 5699 5700 5700 5701 5702 5703 5704 5704 5703 5703 5703 5703 5704 5704 5703 5703 5703 5703 5703 5702 5702 5701 5701 5700 5700 5699 5699
5643 5644 5645 5647 5648 5649 5650 5651 5652 5654 5656 5658 5659 5661 5663 5665 5667 5669 5671 5673 5674 5677 5679 5680 5682 5683 5683 5684 5686 5687 5688 5689 5690 5692 5693 5694 5693 5693 5694 5695 5695 5696 5696 5697 5698 5698 5698 5699 5700 5700 5700 5700 5700 5700 5700 5700 5700 5699 5699 5700 5699 5699 5699 5698 5698 5697 5697 5696 5696
5636 5638 5639 5641 5642 5643 5645 5646 5647 5649 5651 5653 5654 5656 5658 5661 5663 5664 5666 5668 5671 5673 5674 5676 5677 5678 5679 5680 5682 5683 5684 5685 5686 5688 5689 5689 5689 5689 5691 5691 5692 5693 5693 5693 5693 5694 5695 5696 5696 5696 5697 5697 5697 5697 5697 5697 5697 5697 5697 5697 5696 5696 5695 5695 5695 5694 5693 5693 5692
5631 5632 5633 5635 5637 5638 5640 5641 5643 5644 5646 5648 5650 5652 5654 5656 5658 5660 5662 5664 5666 5668 5670 5672 5673 5674 5675 5676 5677 5678 5680 5681 5683 5684 5685 5684 5685 5686 5687 5688 5688 5689 5690 5691 5691 5691 5692 5693 5693 5693 5694 5694 5694 5694 5694 5694 5694 5694 5693 5693 5693 5693 5692 5692 5691 5691 5690 5689 5689
5626 5627 5628 5630 5631 5633 5635 5636 5638 5640 5642 5644 5646 5648 5650 5652 5654 5656 5658 5660 5662 5664 5666 5667 5668 5670 5671 5672 5673 5675 5676 5677 5679 5680 5681 5681 5681 5682 5683 5684 5685 5686 5687 5688 5688 5688 5689 5690 5690 5691 5691 5691 5692 5691 5691 5691 5691 5691 5691 5690 5690 5690 5689 5688 5688 5688 5687 5686 5686
5620 5622 5623 5624 5626 5628 5629 5631 5633 5635 5637 5639 5641 5643 5646 5648 5650 5652 5654 5656 5658 5659 5661 5663 5664 5665 5667 5668 5669 5671 5673 5674 5675 5676 5677 5678 5678 5679 5679 5681 5682 5683 5684 5684 5685 5686 5687 5687 5688 5688 5688 5688 5688 5688 5688 5688 5688 5688 5688 5687 5687 5687 5686 5685 5685 5684 5684 5683 5683
5615 5617 5618 5619 5621 5623 5624 5627 5628 5630 5633 5635 5637 5639 5642 5644 5646 5648 5650 5652 5653 5655 5657 5658 5660 5661 5663 5664 5666 5668 5669 5671 5672 5673 5674 5675 5675 5676 5677 5678 5679 5680 5681 5681 5682 5683 5683 5684 5684 5685 5685 5685 5685 5685 5685 5685 5685 5685 5684 5684 5684 5683 5683 5682 5682 5681 5680 5680 5679
5610 5612 5614 5615 5617 5618 5620 5622 5624 5626 5628 5631 5633 5635 5638 5639 5642 5644 5646 5648 5649 5651 5653 5655 5656 5658 5660 5661 5663 5665 5666 5668 5669 5671 5672 5673 5673 5673 5674 5675 5676 5677 5678 5679 5680 5680 5681 5681 5682 5682 5683 5683 5683 5682 5682 5681 5681 5681 5681 5681 5680 5680 5679 5679 5678 5678 5677 5677 5676
5605 5607 5609 5611 5613 5614 5616 5618 5620 5622 5624 5626 5629 5631 5633 5635 5638 5640 5642 5643 5645 5647 5649 5651 5653 5655 5657 5659 5661 5662 5664 5665 5667 5669 5670 5670 5670 5671 5671 5672 5673 5674 5675 5676 5677 5678 5678 5679 5679 5679 5680 5680 5680 5679 5678 5677 5678 5678 5677 5677 5677 5677 5676 5676 5675 5674 5674 5673 5673
5601 5603 5605 5607 5609 5610 5612 5614 5616 5618 5620 5623 5625 5627 5629 5632 5633 5636 5638 5640 5642 5644 5646 5648 5650 5652 5654 5656 5658 5660 5661 5663 5664 5665 5666 5666 5667 5668 5668 5669 5670 5671 5672 5673 5674 5674 5675 5676 5676 5677 5678 5678 5677 5675 5674 5674 5674 5674 5674 5674 5673 5673 5673 5672 5672 5671 5671 5670 5669
5597 5599 5602 5604 5605 5607 5608 5610 5612 5614 5617 5619 5621 5623 5626 5628 5630 5632 5634 5636 5638 5641 5643 5645 5647 5649 5651 5653 5655 5657 5658 5659 5660 5661 5662 5663 5664 5665 5666 5667 5667 5668 5669 5669 5670 5671 5672 5673 5673 5674 5674 5674 5673 5671 5671 5671 5671 5671 5671 5671 5671 5670 5670 5669 5668 5668 5667 5667 5666
5593 5596 5598 5600 5602 5603 5605 5607 5608 5611 5613 5615 5617 5619 5622 5624 5626 5628 5631 5633 5635 5638 5640 5642 5644 5646 5648 5651 5652 5653 5654 5656 5657 5658 5659 5660 5662 5663 5663 5664 5665 5665 5666 5667 5667 5668 5668 5669 5670 5671 5671 5671 5670 5669 5668 5669 5669 5668 5668 5668 5668 5667 5667 5666 5665 5665 5664 5664 5663
5590 5593 5595 5597 5598 5599 5601 5603 5605 5607 5609 5611 5613 5616 5618 5620 5623 5625 5628 5630 5633 5635 5637 5639 5641 5643 5645 5647 5648 5650 5652 5653 5654 5655 5656 5658 5659 5659 5660 5661 5662 5663 5663 5664 5664 5665 5665 5666 5667 5668 5668 5668 5668 5667 5666 5666 5666 5665 5665 5665 5664 5664 5663 5663 5663 5662 5661 5661 5660
5587 5589 5592 5593 5594 5596 5598 5600 5602 5603 5606 5608 5610 5612 5614 5617 5620 5623 5625 5627 5630 5632 5634 5636 5638 5640 5642 5644 5646 5647 5649 5651 5652 5653 5653 5655 5656 5657 5657 5658 5659 5660 5660 5661 5661 5662 5663 5663 5664 5665 5665 5665 5665 5664 5663 5663 5663 5662 5662 5662 5661 5661 5661 5660 5659 5659 5658 5658 5657
5585 5587 5588 5590 5591 5593 5595 5597 5598 5600 5602 5604 5607 5609 5611 5614 5617 5620 5622 5625 5627 5630 5632 5634 5636 5638 5640 5642 5643 5645 5646 5648 5649 5650 5651 5652 5653 5654 5654 5655 5656 5657 5658 5658 5659 5659 5660 5661 5661 5662 5662 5663 5662 5661 5660 5660 5659 5659 5659 5659 5659 5658 5658 5657 5657 5656 5655 5654 5653
5583 5584 5585 5587 5588 5590 5592 5593 5595 5597 5599 5601 5603 5606 5608 5611 5614 5617 5620 5623 5625 5627 5630 5632 5634 5636 5638 5639 5641 5642 5643 5645 5646 5647 5648 5649 5650 5651 5652 5653 5653 5654 5655 5656 5656 5657 5657 5658 5658 5659 5659 5659 5658 5658 5657 5657 5657 5657 5657 5656 5656 5655 5654 5654 5653 5653 5652 5651 5650
5580 5581 5583 5584 5586 5587 5589 5591 5592 5594 5596 5598 5601 5603 5606 5609 5612 5615 5618 5620 5623 5625 5628 5630 5632 5633 5635 5637 5638 5640 5641 5642 5643 5645 5646 5647 5648 5648 5649 5650 5651 5652 5653 5653 5653 5654 5654 5655 5656 5656 5656 5656 5656 5655 5655 5655 5655 5654 5654 5653 5653 5652 5651 5651 5650 5649 5649 5648 5647
5578 5579 5580 5582 5583 5585 5586 5588 5590 5592 5594 5596 5599 5601 5604 5607 5610 5613 5616 5618 5621 5623 5626 5628 5630 5631 5633 5634 5636 5637 5639 5640 5641 5643 5643 5644 5645 5646 5647 5648 5648 5649 5649 5650 5651 5652 5652 5653 5653 5653 5653 5653 5653 5653 5653 5653 5652 5652 5651 5650 5649 5649 5648 5648 5647 5646 5645 5644 5643
5576 5577 5578 5580 5581 5583 5584 5586 5588 5590 5592 5594 5597 5599 5602 5605 5608 5611 5614 5617 5619 5622 5624 5626 5628 5629 5631 5632 5634 5635 5637 5638 5639 5640 5641 5642 5643 5644 5645 5645 5646 5647 5648 5648 5648 5649 5650 5650 5651 5651 5651 5651 5651 5651 5650 5650 5649 5648 5648 5647 5647 5646 5645 5645 5644 5643 5643 5641 5640
5575 5576 5577 5578 5580 5581 5583 5585 5587 5588 5591 5593 5595 5598 5600 5603 5606 5609 5612 5615 5618 5620 5622 5624 5625 5627 5628 5630 5632 5633 5634 5636 5637 5638 5639 5640 5641 5642 5643 5643 5644 5645 5645 5646 5646 5647 5647 5648 5648 5648 5648 5648 5648 5648 5647 5647 5646 5646 5645 5644 5644 5643 5643 5642 5641 5640 5639 5637 5636
5574 5575 5576 5578 5579 5580 5582 5584 5585 5587 5589 5591 5593 5596 5599 5602 5605 5608 5611 5613 5616 5618 5620 5622 5623 5625 5627 5628 5630 5631 5633 5634 5635 5636 5637 5638 5639 5639 5640 5641 5642 5643 5643 5644 5644 5644 5645 5645 5645 5645 5645 5645 5645 5645 5644 5644 5643 5643 5642 5642 5641 5640 5639 5638 5637 5636 5635 5633 5632
5573 5574 5575 5577 5578 5580 5581 5583 5584 5586 5588 5590 5592 5595 5598 5600 5603 5607 5609 5612 5614 5616 5618 5620 5622 5623 5625 5627 5628 5629 5630 5632 5633 5634 5635 5636 5637 5638 5638 5639 5639 5640 5641 5641 5642 5642 5642 5643 5643 5643 5643 5643 5642 5642 5642 5641 5641 5640 5640 5639 5638 5637 5636 5635 5634 5633 5632 5630 5629
5572 5573 5574 5576 5578 5579 5581 5582 5583 5585 5587 5589 5592 5594 5597 5600 5603 5606 5608 5611 5613 5615 5617 5618 5620 5622 5623 5625 5626 5627 5628 5630 5631 5632 5633 5634 5635 5636 5636 5637 5637 5638 5638 5639 5639 5639 5640 5640 5640 5640 5640 5640 5639 5639 5639 5638 5638 5638 5637 5636 5635 5634 5633 5632 5631 5630 5629 5628 5626
5572 5573 5574 5575 5577 5578 5580 5581 5583 5585 5587 5589 5591 5594 5597 5599 5602 5605 5607 5609 5612 5613 5615 5617 5619 5620 5622 5623 5624 5625 5627 5628 5629 5630 5631 5632 5633 5634 5634 5635 5635 5635 5636 5637 5637 5637 5637 5637 5637 5638 5638 5637 5637 5636 5636 5636 5636 5635 5634 5633 5632 5631 5630 5629 5628 5627 5626 5624 5623
5572 5573 5574 5575 5576 5578 5579 5581 5583 5584 5586 5589 5591 5594 5596 5599 5602 5604 5606 5608 5610 5612 5614 5616 5617 5618 5620 5621 5623 5624 5625 5626 5627 5628 5630 5631 5631 5632 5632 5633 5633 5633 5634 5634 5635 5635 5635 5635 5635 5635 5635 5634 5634 5633 5633 5633 5633 5632 5631 5630 5629 5628 5627 5626 5625 5623 5622 5621 5619
5572 5573 5574 5575 5577 5578 5579 5581 5583 5585 5587 5589 5591 5594 5596 5599 5601 5603 5605 5607 5609 5611 5613 5614 5615 5617 5618 5619 5621 5622 5623 5624 5626 5627 5628 5628 5629 5629 5630 5630 5631 5632 5632 5632 5633 5633 5633 5633 5632 5632 5632 5632 5632 5632 5631 5631 5630 5628 5628 5627 5626 5625 5624 5623 5622 5621 5619 5618 5616
5573 5574 5575 5576 5577 5579 5580 5582 5583 5585 5587 5589 5592 5594 5596 5598 5600 5602 5604 5606 5608 5609 5611 5612 5614 5615 5617 5618 5619 5620 5622 5623 5624 5625 5626 5626 5627 5628 5628 5629 5629 5630 5630 5630 5631 5631 5630 5630 5630 5630 5630 5630 5630 5629 5628 5627 5626 5626 5625 5624 5624 5623 5622 5620 5619 5617 5615 5613 5612
5574 5575 5576 5577 5578 5580 5581 5583 5584 5586 5588 5590 5592 5594 5596 5598 5599 5601 5603 5604 5606 5608 5609 5611 5613 5614 5616 5617 5618 5619 5620 5621 5622 5623 5623 5624 5625 5626 5627 5628 5628 5628 5628 5628 5628 5628 5628 5628 5628 5628 5628 5628 5627 5626 5625 5624 5624 5623 5623 5622 5621 5620 5618 5617 5615 5613 5611 5609 5608
5576 5577 5578 5578 5580 5581 5582 5583 5585 5586 5588 5589 5591 5593 5595 5597 5598 5600 5602 5603 5605 5607 5609 5610 5612 5613 5614 5615 5617 5618 5618 5619 5620 5621 5622 5623 5624 5625 5626 5627 5627 5627 5627 5627 5626 5626 5627 5627 5626 5626 5625 5624 5623 5623 5623 5622 5622 5621 5620 5619 5618 5616 5615 5613 5611 5609 5608 5606 5603
5577 5578 5579 5580 5581 5582 5583 5584 5585 5587 5588 5590 5591 5593 5595 5596 5598 5600 5601 5603 5605 5607 5608 5609 5611 5612 5613 5614 5615 5616 5617 5618 5619 5620 5622 5623 5623 5624 5625 5626 5625 5625 5625 5625 5625 5625 5624 5624 5623 5623 5622 5622 5621 5621 5621 5620 5619 5618 5617 5616 5614 5613 5611 5609 5608 5606 5604 5602 5600
5578 5579 5580 5581 5582 5583 5584 5585 5586 5588 5589 5590 5592 5593 5595 5597 5598 5600 5601 5603 5604 5606 5607 5608 5610 5611 5612 5613 5614 5616 5617 5618 5619 5620 5621 5622 5623 5623 5623 5623 5623 5623 5623 5623 5623 5622 5622 5621 5621 5620 5620 5620 5620 5619 5618 5617 5616 5615 5613 5612 5611 5609 5608 5606 5604 5602 5600 5598 5596
5580 5580 5581 5582 5583 5584 5585 5586 5588 5589 5590 5591 5593 5594 5596 5597 5598 5600 5601 5603 5604 5605 5607 5608 5609 5610 5612 5613 5614 5615 5616 5617 5618 5620 5621 5621 5621 5621 5621 5621 5622 5622 5621 5621 5620 5620 5619 5619 5619 5619 5619 5618 5617 5616 5615 5614 5613 5611 5610 5609 5607 5606 5604 5602 5600 5598 5596 5594 5592
5581 5582 5583 5584 5585 5585 5586 5588 5588 5590 5591 5592 5593 5595 5596 5597 5598 5600 5601 5602 5604 5605 5606 5608 5609 5610 5611 5612 5613 5614 5616 5617 5618 5619 5619 5619 5619 5619 5619 5620 5619 5619 5619 5618 5618 5618 5618 5618 5618 5617 5616 5615 5614 5613 5612 5611 5609 5608 5607 5605 5604 5602 5600 5598 5597 5595 5593 5590 5588